This demonstration page uses our WeatherBlox Daily Observations layout. Learn more.

Left ArrowRight Arrow

Hourly Observations for May 9, 2015

Temp ( °F °C ) Dew Point ( °F °C ) Humidity (%) Winds ( mph kmh ) Pressure ( in mb ) Visibility ( mi km ) Precip ( " mm )
12:16 am 00:16 Clear 68 20 57 14 69 69 Calm 30.03 1017 10 16.0934 N/A
12:36 am 00:36 Partly Cloudy 68 20 57 14 69 69 E 3 6 30.03 1017 10 16.0934 N/A
12:56 am 00:56 Clear 66 19 57 14 73 73 E 3 6 30.03 1017 10 16.0934 N/A
1:15 am 01:15 Clear 68 20 57 14 69 69 SE 3 6 30.03 1017 10 16.0934 N/A
1:36 am 01:36 Clear 68 20 57 14 69 69 S 3 6 30.03 1017 10 16.0934 N/A
1:56 am 01:56 Clear 68 20 57 14 69 69 Calm 30.03 1017 10 16.0934 N/A
2:16 am 02:16 Partly Cloudy 68 20 63 17 83 83 SSW 3 6 30.03 1017 4 6.43736 N/A
2:36 am 02:36 Mostly Cloudy 66 19 66 19 100 100 S 5 7 30.03 1017 7 11.26538 N/A
2:55 am 02:55 Mostly Cloudy 66 19 N/A N/A S 5 7 30.03 1017 10 16.0934 N/A
3:16 am 03:16 Cloudy 66 19 N/A N/A S 5 7 30.03 1017 10 16.0934 N/A
3:36 am 03:36 Partly Cloudy 66 19 N/A N/A SSW 5 7 30.03 1017 10 16.0934 N/A
3:56 am 03:56 Clear 66 19 N/A N/A SSW 5 7 30.03 1017 10 16.0934 N/A
4:16 am 04:16 Clear 66 19 N/A N/A S 5 7 30.03 1017 10 16.0934 N/A
4:36 am 04:36 Clear 66 19 N/A N/A S 5 7 30.03 1017 10 16.0934 N/A
4:56 am 04:56 Clear 66 19 N/A N/A S 5 7 30.03 1017 10 16.0934 N/A
5:16 am 05:16 Clear 66 19 N/A N/A S 6 9 30.06 1018 10 16.0934 N/A
5:36 am 05:36 Clear 66 19 N/A N/A S 6 9 30.03 1017 10 16.0934 N/A
5:56 am 05:56 Clear 66 19 N/A N/A S 6 9 30.06 1018 10 16.0934 N/A
6:16 am 06:16 Clear 66 19 N/A N/A S 6 9 30.06 1018 10 16.0934 N/A
6:36 am 06:36 Mostly Cloudy 66 19 N/A N/A S 6 9 30.06 1018 10 16.0934 N/A
6:55 am 06:55 Cloudy 66 19 N/A N/A S 7 11 30.06 1018 10 16.0934 N/A
7:16 am 07:16 Cloudy 68 20 N/A N/A SSW 8 13 30.06 1018 10 16.0934 N/A
7:36 am 07:36 Cloudy 68 20 N/A N/A S 7 11 30.09 1019 10 16.0934 N/A
7:56 am 07:56 Cloudy 68 20 N/A N/A S 8 13 30.09 1019 10 16.0934 N/A
8:16 am 08:16 Cloudy 68 20 N/A N/A S 8 13 30.09 1019 10 16.0934 N/A
8:36 am 08:36 Cloudy 68 20 N/A N/A S 7 11 30.09 1019 10 16.0934 N/A
8:56 am 08:56 Mostly Cloudy 70 21 70 21 100 100 S 7 11 30.09 1019 10 16.0934 N/A
9:16 am 09:16 Mostly Cloudy 70 21 66 19 88 88 SSW 8 13 30.09 1019 10 16.0934 N/A
9:36 am 09:36 Cloudy 72 22 66 19 83 83 SSW 8 13 30.06 1018 10 16.0934 N/A
9:56 am 09:56 Cloudy 72 22 66 19 83 83 SW 9 15 30.06 1018 10 16.0934 N/A
10:16 am 10:16 Cloudy 72 22 64 18 78 78 SW 7 11 30.06 1018 10 16.0934 N/A
10:36 am 10:36 Mostly Cloudy 73 23 64 18 74 74 SW 9 15 30.06 1018 10 16.0934 N/A
10:55 am 10:55 Mostly Cloudy 75 24 61 16 61 61 WSW 9 15 30.06 1018 10 16.0934 N/A
11:16 am 11:16 Mostly Cloudy 75 24 61 16 61 61 WSW 6 9 30.03 1017 10 16.0934 N/A
11:36 am 11:36 Partly Cloudy 77 25 61 16 57 57 W 10 17 30.06 1018 10 16.0934 N/A
11:56 am 11:56 Sunny 77 25 59 15 54 54 SW 10 17 30.06 1018 10 16.0934 N/A
12:16 pm 12:16 Mostly Cloudy 79 26 57 14 48 48 SSW 12 19 30.06 1018 10 16.0934 N/A
12:35 pm 12:35 Mostly Cloudy 77 25 59 15 54 54 WSW 10 17 30.03 1017 10 16.0934 N/A
12:56 pm 12:56 Mostly Cloudy 79 26 59 15 51 51 WSW 9 15 30.03 1017 10 16.0934 N/A
1:16 pm 13:16 Partly Cloudy 79 26 55 13 45 45 SW 8 13 30.03 1017 10 16.0934 N/A
1:36 pm 13:36 Partly Cloudy 81 27 55 13 42 42 W 7 11 30.03 1017 10 16.0934 N/A
1:56 pm 13:56 Partly Cloudy 77 25 61 16 57 57 W 10 17 30.03 1017 10 16.0934 N/A
2:16 pm 14:16 Partly Cloudy 79 26 61 16 54 54 WSW 9 15 30.03 1017 10 16.0934 N/A
2:36 pm 14:36 Partly Cloudy 81 27 57 14 45 45 WSW 9 15 30 1016 10 16.0934 N/A
2:55 pm 14:55 Partly Cloudy 77 25 61 16 57 57 S 7 11 30 1016 7 11.26538 N/A
3:16 pm 15:16 Mostly Cloudy 73 23 64 18 74 74 WSW 14 22 30 1016 10 16.0934 N/A
3:36 pm 15:36 Partly Cloudy 75 24 68 20 78 78 WSW 8 13 30 1016 10 16.0934 N/A
3:56 pm 15:56 Sunny 77 25 61 16 57 57 SW 13 20 30 1016 10 16.0934 N/A
4:16 pm 16:16 Sunny 77 25 57 14 51 51 SW 12 19 30 1016 10 16.0934 N/A
4:35 pm 16:35 Sunny 79 26 57 14 48 48 SW 13 20 30 1016 10 16.0934 N/A
4:56 pm 16:56 Sunny 81 27 54 12 39 39 WSW 16 26 30 1016 10 16.0934 N/A
5:15 pm 17:15 Sunny 79 26 54 12 42 42 WSW 15 24 30 1016 10 16.0934 N/A
5:36 pm 17:36 Sunny 81 27 54 12 39 39 SW 9 15 30 1016 10 16.0934 N/A
5:56 pm 17:56 Sunny 81 27 52 11 37 37 W 12 19 30 1016 10 16.0934 N/A
6:16 pm 18:16 Sunny 79 26 52 11 39 39 W 14 22 30 1016 10 16.0934 N/A
6:36 pm 18:36 Sunny 79 26 52 11 39 39 WSW 8 13 30 1016 10 16.0934 N/A
6:56 pm 18:56 Partly Cloudy 79 26 52 11 39 39 WSW 6 9 30 1016 10 16.0934 N/A
7:16 pm 19:16 Mostly Cloudy 70 21 59 15 69 69 W 25 41 30.06 1018 7 11.26538 N/A
7:35 pm 19:35 Mostly Cloudy 68 20 64 18 88 88 W 9 15 30.06 1018 10 16.0934 N/A
7:56 pm 19:56 Mostly Cloudy 68 20 N/A N/A W 5 7 30.06 1018 10 16.0934 N/A
8:16 pm 20:16 Mostly Cloudy 68 20 N/A N/A Calm 30.06 1018 5 8.0467 N/A
8:36 pm 20:36 Partly Cloudy 68 20 N/A N/A N 3 6 30.06 1018 10 16.0934 N/A
8:56 pm 20:56 Clear 68 20 N/A N/A Calm 30.06 1018 10 16.0934 N/A
9:16 pm 21:16 Partly Cloudy 66 19 N/A N/A ENE 5 7 30.06 1018 7 11.26538 N/A
9:36 pm 21:36 Partly Cloudy 66 19 N/A N/A E 8 13 30.06 1018 7 11.26538 N/A
9:55 pm 21:55 Clear 66 19 N/A N/A E 7 11 30.06 1018 10 16.0934 N/A
10:16 pm 22:16 Clear 66 19 N/A N/A E 6 9 30.06 1018 10 16.0934 N/A
10:36 pm 22:36 Clear 66 19 N/A N/A E 5 7 30.06 1018 10 16.0934 N/A
10:56 pm 22:56 Clear 66 19 N/A N/A Calm 30.06 1018 10 16.0934 N/A
11:16 pm 23:16 Clear 64 18 N/A N/A Calm 30.06 1018 10 16.0934 N/A
11:36 pm 23:36 Clear 64 18 N/A N/A Calm 30.06 1018 7 11.26538 N/A
11:56 pm 23:56 Clear 64 18 N/A N/A Calm 30.06 1018 5 8.0467 N/A

Powered by AerisWeather